Location: Newark
(51.2625°N, 13.3939°E)
Time: 15:15:57
(UTC+00:00)

deb Explorer IX - Pass Details

Date: 25 November 2019
Orbit: 546 x 1104 km, 38.8° (Epoch: 14 December)

Event Time Altitude Azimuth Distance (km) Brightness Sun altitude
Rises 00:00:07 0° 248° (WSW) 3,839 - -56.7°
Reaches altitude 10° 00:03:22 10° 237° (WSW) 2,823 - -56.4°
Maximum altitude 00:08:54 27° 183° (S) 1,757 - -56.0°
Drops below altitude 10° 00:13:53 10° 128° (SE) 2,527 - -55.6°
Sets 00:16:38 0° 116° (ESE) 3,366 - -55.3°
